MMS 1

Last updated on Sun Apr 12 2026 00:02:44 GMT+0000 (Coordinated Universal Time)

1 40482U 15011A 26101.58335647 -.00001082 00000+0 00000+0 0 9997 2 40482 71.1600 349.7292 8389495 165.8999 345.0097 0.28115859 1316
UTC large
Height (km)
Speed (km/s)
/
Latitude / Longitude
Inclination (degrees)
Orbital Period (minutes)
Azimuth
Elevation
Range (km)
Doppler Factor

Next 0 passes for location: London (51.5072 / 0.1276)

Sorry there are no passes over London.